User: anonymous   Login
Location: Albany
(35.0000°S, 118.0000°E)
Time: 06:22:09
(UTC-04:00)
Language:

ADEOS Rocket - Orbit

View from above orbital plane
View from above orbital plane
View from above satellite
View from above satellite

Ground track
Ground track

The orbit data is extracted from the following two-line orbital elements,

1 24279U 96046C   17147.88281315 -.00000007 +00000-0 +38314-4 0  9996
2 24279 098.7518 094.3483 0299842 340.6963 081.4328 13.47084761021235
Epoch (UTC): 27 May 2017 21:11:15
Eccentricity: 0.0299842
inclination: 98.7518°
perigee height: 859 km
apogee height: 1307 km
right ascension of ascending node: 94.3483°
argument of perigee: 340.6963°
revolutions per day: 13.47084761
mean anomaly at epoch: 81.4328°
orbit number at epoch: 2123

The dashed part of the orbit path shows where the satellite is in the earth's shadow,  

DLR